Back to catalog

COSMOS 1913

AliveMilitaryPO
NORAD 18792·PAYLOAD·🇷🇺 Russia

Launched Jan 15, 1988 from Plesetsk Cosmodrome

Loading…

Next Passes (next 24 hours)

TLE

FreshSource: Space-Track

Epoch: Sep 14, 2026, 04:31 UTC

1 18792U 88002E   26257.18829707  .00000038  00000-0  14381-3 0  9990
2 18792  82.6032 159.6734 0012535 222.6556 303.9086 12.65751939786018

Track COSMOS 1913 in real time with AllMySat

Download on the App Store